{"data":{"norad_id":47589,"intl_designator":"2021-009AT","name":"STARLINK-1994","alt_names":[],"object_type":"PAYLOAD","status":"ACTIVE","operator":null,"country":"US","launch_date":"2021-02-04","launch_site_code":"AFETR","launch_vehicle":null,"mission":null,"orbit_class":"UNKNOWN","rcs_meters":null,"size_class":null,"mass_kg":null,"dimensions":null,"purposes":["comms"],"wikipedia_slug":null,"has_3d_model":false,"image_url":null,"decayed_at":null,"tle_current":{"epoch":"2026-05-25T00:54:54.036288Z","epoch_age_seconds":80666,"freshness":"FRESH","line1":"1 47589U 21009AT  26145.03812542  .00100417  00000+0  77005-3 0  9992","line2":"2 47589  53.0421 347.5672 0002187  51.9828 308.1386 15.71322505293021","mean_motion":15.71322505,"eccentricity":0.0002187,"inclination_deg":53.0421,"raan_deg":347.5672,"arg_perigee_deg":51.9828,"mean_anomaly_deg":308.1386,"bstar":0.00077005,"rev_number":29302,"period_min":91.642549216846,"perigee_km":353.64376238291,"apogee_km":356.58888738721,"semimajor_km":6733.2533248851,"source":"CELESTRAK","updated_at":"2026-05-25T13:38:16.557854Z"}}}